| time (UTC) | temp F | wind direction | speed MPH | gust MPH | rain 1hr in | rain 24hr in | rain mn in | humidity % | barometer mb |
| 20260507235431 | 54 | 82 | 0.0 | 0.0 | 0.00 | 0.48 | 0.46 | 95 | 1010.2 |
| 20260507234931 | 54 | 82 | 0.0 | 1.0 | 0.00 | 0.48 | 0.46 | 94 | 1010.0 |
| 20260507234432 | 54 | 78 | 0.0 | 1.0 | 0.00 | 0.48 | 0.46 | 94 | 1009.8 |
| 20260507233934 | 55 | 282 | 0.0 | 0.0 | 0.00 | 0.48 | 0.46 | 94 | 1009.8 |
| 20260507233430 | 55 | 67 | 0.0 | 0.0 | 0.00 | 0.48 | 0.46 | 94 | 1009.6 |
| 20260507233149 | 55 | 292 | 0.0 | 2.0 | 0.00 | 0.48 | 0.46 | 94 | 1009.2 |
| 20260507232652 | 55 | 292 | 0.0 | 2.0 | 0.00 | 0.48 | 0.46 | 94 | 1009.2 |
| 20260507231931 | 55 | 239 | 0.0 | 1.0 | 0.00 | 0.48 | 0.46 | 94 | 1009.2 |
| 20260507231431 | 55 | 26 | 0.0 | 1.0 | 0.00 | 0.48 | 0.46 | 94 | 1009.2 |
| 20260507230931 | 55 | 239 | 0.0 | 1.0 | 0.00 | 0.48 | 0.46 | 94 | 1009.2 |
| 20260507230433 | 55 | 231 | 0.0 | 1.0 | 0.00 | 0.48 | 0.46 | 94 | 1009.1 |
| 20260507225931 | 55 | 128 | 0.0 | 1.0 | 0.00 | 0.48 | 0.46 | 94 | 1009.4 |
| 20260507225657 | 55 | 281 | 0.0 | 1.0 | 0.00 | 0.48 | 0.46 | 94 | 1009.1 |
| 20260507224931 | 55 | 313 | 0.0 | 1.0 | 0.00 | 0.48 | 0.46 | 94 | 1009.0 |
| 20260507224431 | 55 | 334 | 0.0 | 2.0 | 0.00 | 0.48 | 0.46 | 94 | 1009.1 |
| 20260507224144 | 55 | 224 | 0.0 | 5.0 | 0.00 | 0.48 | 0.46 | 94 | 1009.2 |
| 20260507224136 | 55 | 114 | 0.0 | 3.0 | 0.00 | 0.48 | 0.46 | 94 | 1009.2 |
| 20260507223417 | 55 | 250 | 0.0 | 5.0 | 0.00 | 0.48 | 0.46 | 94 | 1009.4 |
| 20260507222431 | 55 | 253 | 0.0 | 3.0 | 0.00 | 0.48 | 0.46 | 94 | 1009.6 |
| 20260507222156 | 55 | 81 | 0.0 | 6.0 | 0.00 | 0.48 | 0.46 | 94 | 1009.5 |
| 20260507221433 | 55 | 253 | 0.0 | 6.0 | 0.00 | 0.48 | 0.46 | 94 | 1009.7 |
| 20260507220932 | 55 | 43 | 0.0 | 3.0 | 0.00 | 0.48 | 0.46 | 94 | 1009.5 |
| 20260507220430 | 55 | 235 | 0.0 | 4.0 | 0.00 | 0.48 | 0.46 | 94 | 1009.3 |
| 20260507215932 | 55 | 104 | 0.0 | 4.0 | 0.00 | 0.48 | 0.46 | 95 | 1009.2 |
| 20260507215431 | 55 | 253 | 0.0 | 3.0 | 0.00 | 0.48 | 0.46 | 95 | 1009.3 |
| 20260507214931 | 55 | 262 | 0.0 | 3.0 | 0.00 | 0.48 | 0.46 | 95 | 1009.3 |
| 20260507214431 | 55 | 38 | 0.0 | 3.0 | 0.00 | 0.48 | 0.46 | 95 | 1009.3 |
| 20260507213931 | 55 | 258 | 0.0 | 4.0 | 0.00 | 0.48 | 0.46 | 95 | 1009.2 |
| 20260507213431 | 55 | 300 | 0.0 | 4.0 | 0.00 | 0.48 | 0.46 | 95 | 1009.1 |
| 20260507212931 | 55 | 356 | 0.0 | 2.0 | 0.00 | 0.48 | 0.46 | 95 | 1009.0 |
| 20260507212641 | 55 | 62 | 0.0 | 4.0 | 0.00 | 0.48 | 0.46 | 95 | 1009.0 |
| 20260507212625 | 55 | 269 | 0.0 | 2.0 | 0.00 | 0.48 | 0.46 | 95 | 1009.0 |
| 20260507211431 | 55 | 112 | 0.0 | 4.0 | 0.00 | 0.48 | 0.46 | 95 | 1009.0 |
| 20260507210931 | 55 | 260 | 1.0 | 4.0 | 0.00 | 0.48 | 0.46 | 95 | 1009.0 |
| 20260507210431 | 55 | 276 | 1.0 | 4.0 | 0.00 | 0.48 | 0.46 | 94 | 1009.0 |
| 20260507205930 | 55 | 67 | 1.0 | 3.0 | 0.00 | 0.48 | 0.46 | 94 | 1008.8 |
| 20260507205431 | 55 | 67 | 1.0 | 7.0 | 0.00 | 0.48 | 0.46 | 95 | 1008.8 |
| 20260507204932 | 55 | 244 | 0.0 | 7.0 | 0.00 | 0.48 | 0.46 | 95 | 1008.7 |
| 20260507204431 | 55 | 307 | 0.0 | 2.0 | 0.00 | 0.48 | 0.46 | 95 | 1008.7 |
| 20260507203930 | 55 | 357 | 0.0 | 3.0 | 0.00 | 0.48 | 0.46 | 95 | 1008.7 |
| 20260507203651 | 55 | 66 | 1.0 | 7.0 | 0.00 | 0.48 | 0.46 | 95 | 1008.9 |
| 20260507202931 | 54 | 57 | 1.0 | 7.0 | 0.00 | 0.48 | 0.46 | 95 | 1008.7 |
| 20260507202656 | 54 | 73 | 1.0 | 7.0 | 0.00 | 0.48 | 0.46 | 95 | 1008.7 |
| 20260507201931 | 54 | 274 | 1.0 | 7.0 | 0.00 | 0.48 | 0.46 | 96 | 1008.7 |
| 20260507201432 | 54 | 63 | 1.0 | 8.0 | 0.01 | 0.48 | 0.46 | 96 | 1008.4 |
| 20260507200931 | 54 | 233 | 1.0 | 8.0 | 0.01 | 0.48 | 0.46 | 96 | 1008.6 |
| 20260507200431 | 54 | 60 | 1.0 | 4.0 | 0.02 | 0.48 | 0.46 | 96 | 1008.8 |
| 20260507200412 | 54 | 223 | 0.0 | 4.0 | 0.02 | 0.48 | 0.46 | 96 | 1008.8 |
| 20260507195658 | 55 | 25 | 0.0 | 4.0 | 0.02 | 0.48 | 0.46 | 96 | 1008.5 |
| 20260507194931 | 55 | 352 | 0.0 | 5.0 | 0.02 | 0.48 | 0.46 | 96 | 1008.7 |
| 20260507194431 | 55 | 293 | 1.0 | 5.0 | 0.02 | 0.48 | 0.46 | 96 | 1008.7 |
| 20260507193931 | 55 | 181 | 1.0 | 5.0 | 0.02 | 0.48 | 0.46 | 96 | 1008.8 |
| 20260507193431 | 55 | 256 | 1.0 | 5.0 | 0.02 | 0.48 | 0.46 | 96 | 1008.9 |
| 20260507192931 | 55 | 299 | 0.0 | 4.0 | 0.02 | 0.48 | 0.46 | 96 | 1009.0 |
| 20260507192429 | 55 | 95 | 1.0 | 5.0 | 0.02 | 0.48 | 0.46 | 96 | 1008.9 |
| 20260507191929 | 55 | 280 | 1.0 | 6.0 | 0.02 | 0.48 | 0.46 | 96 | 1008.8 |
| 20260507191430 | 55 | 100 | 1.0 | 6.0 | 0.01 | 0.47 | 0.45 | 96 | 1008.6 |
| 20260507191145 | 55 | 86 | 1.0 | 6.0 | 0.01 | 0.47 | 0.45 | 96 | 1008.5 |
| 20260507190649 | 55 | 321 | 1.0 | 5.0 | 0.00 | 0.46 | 0.44 | 96 | 1008.4 |
| 20260507185929 | 55 | 81 | 1.0 | 5.0 | 0.00 | 0.46 | 0.44 | 96 | 1008.3 |
| 20260507185651 | 55 | 314 | 1.0 | 10.0 | 0.00 | 0.46 | 0.44 | 96 | 1008.2 |
| 20260507184929 | 56 | 254 | 1.0 | 10.0 | 0.00 | 0.46 | 0.44 | 96 | 1008.3 |
| 20260507184429 | 56 | 95 | 0.0 | 4.0 | 0.01 | 0.46 | 0.44 | 96 | 1008.3 |
| 20260507183931 | 56 | 73 | 1.0 | 5.0 | 0.01 | 0.46 | 0.44 | 96 | 1008.3 |
| 20260507183429 | 56 | 203 | 1.0 | 6.0 | 0.01 | 0.46 | 0.44 | 96 | 1008.1 |
| 20260507182930 | 56 | 41 | 2.0 | 8.0 | 0.01 | 0.46 | 0.44 | 96 | 1007.9 |
| 20260507182429 | 57 | 70 | 1.0 | 8.0 | 0.01 | 0.46 | 0.44 | 96 | 1007.9 |
| 20260507181929 | 57 | 306 | 0.0 | 6.0 | 0.01 | 0.46 | 0.44 | 96 | 1008.0 |
| 20260507181428 | 57 | 278 | 0.0 | 4.0 | 0.01 | 0.46 | 0.44 | 96 | 1008.0 |
| 20260507180928 | 57 | 218 | 1.0 | 7.0 | 0.01 | 0.46 | 0.44 | 96 | 1008.2 |
| 20260507180646 | 57 | 221 | 0.0 | 7.0 | 0.02 | 0.46 | 0.44 | 96 | 1007.8 |
| 20260507175929 | 57 | 256 | 0.0 | 5.0 | 0.03 | 0.46 | 0.44 | 96 | 1008.0 |
| 20260507175917 | 57 | 253 | 1.0 | 5.0 | 0.03 | 0.46 | 0.44 | 96 | 1008.6 |
| 20260507174929 | 57 | 232 | 1.0 | 5.0 | 0.02 | 0.45 | 0.44 | 96 | 1008.9 |
| 20260507174430 | 57 | 284 | 1.0 | 5.0 | 0.03 | 0.45 | 0.43 | 96 | 1009.1 |
| 20260507174148 | 57 | 339 | 1.0 | 6.0 | 0.03 | 0.45 | 0.43 | 96 | 1008.5 |
| 20260507173429 | 58 | 283 | 1.0 | 6.0 | 0.03 | 0.45 | 0.43 | 96 | 1008.4 |
| 20260507172928 | 58 | 326 | 0.0 | 5.0 | 0.03 | 0.45 | 0.43 | 96 | 1008.1 |
| 20260507172428 | 58 | 342 | 1.0 | 5.0 | 0.04 | 0.45 | 0.43 | 96 | 1007.8 |
| 20260507171930 | 59 | 83 | 1.0 | 8.0 | 0.04 | 0.45 | 0.43 | 96 | 1007.8 |
| 20260507171657 | 59 | 324 | 1.0 | 8.0 | 0.04 | 0.45 | 0.43 | 96 | 1007.5 |
| 20260507170929 | 59 | 278 | 1.0 | 10.0 | 0.04 | 0.45 | 0.43 | 96 | 1007.4 |
| 20260507170430 | 59 | 294 | 1.0 | 10.0 | 0.03 | 0.44 | 0.42 | 96 | 1007.7 |
| 20260507165929 | 60 | 53 | 1.0 | 6.0 | 0.02 | 0.43 | 0.41 | 96 | 1008.2 |
| 20260507165656 | 60 | 221 | 1.0 | 6.0 | 0.02 | 0.43 | 0.41 | 96 | 1007.7 |
| 20260507164929 | 60 | 273 | 1.0 | 6.0 | 0.03 | 0.43 | 0.41 | 96 | 1007.9 |
| 20260507164429 | 61 | 80 | 1.0 | 6.0 | 0.04 | 0.42 | 0.40 | 96 | 1008.2 |
| 20260507163929 | 62 | 26 | 2.0 | 9.0 | 0.04 | 0.42 | 0.40 | 95 | 1008.2 |
| 20260507163429 | 63 | 45 | 2.0 | 10.0 | 0.05 | 0.42 | 0.40 | 95 | 1008.6 |
| 20260507162930 | 66 | 74 | 0.0 | 10.0 | 0.06 | 0.42 | 0.40 | 96 | 1008.6 |
| 20260507162429 | 67 | 285 | 0.0 | 2.0 | 0.05 | 0.41 | 0.39 | 98 | 1008.4 |
| 20260507161928 | 66 | 87 | 0.0 | 2.0 | 0.06 | 0.41 | 0.39 | 97 | 1008.3 |
| 20260507161647 | 67 | 74 | 0.0 | 3.0 | 0.07 | 0.41 | 0.39 | 97 | 1008.3 |
| 20260507160929 | 67 | 90 | 0.0 | 3.0 | 0.07 | 0.41 | 0.39 | 97 | 1008.4 |
| 20260507160429 | 67 | 102 | 0.0 | 2.0 | 0.08 | 0.41 | 0.39 | 97 | 1008.3 |
| 20260507155928 | 67 | 258 | 0.0 | 1.0 | 0.09 | 0.41 | 0.39 | 98 | 1008.4 |
| 20260507155652 | 67 | 89 | 0.0 | 1.0 | 0.10 | 0.41 | 0.39 | 98 | 1008.4 |
| 20260507154933 | 67 | 83 | 0.0 | 0.0 | 0.10 | 0.40 | 0.39 | 98 | 1008.2 |
| 20260507154431 | 67 | 83 | 0.0 | 0.0 | 0.10 | 0.38 | 0.37 | 98 | 1007.9 |
| 20260507153931 | 67 | 97 | 0.0 | 0.0 | 0.11 | 0.38 | 0.36 | 98 | 1007.8 |
| 20260507153431 | 67 | 93 | 0.0 | 0.0 | 0.11 | 0.37 | 0.35 | 98 | 1008.1 |
| 20260507153148 | 67 | 90 | 0.0 | 0.0 | 0.11 | 0.36 | 0.34 | 98 | 1008.2 |
| 20260507152432 | 68 | 90 | 0.0 | 1.0 | 0.11 | 0.36 | 0.34 | 98 | 1008.2 |
| 20260507151931 | 68 | 98 | 0.0 | 1.0 | 0.11 | 0.35 | 0.33 | 98 | 1008.1 |
| 20260507151431 | 68 | 117 | 0.0 | 0.0 | 0.10 | 0.34 | 0.32 | 98 | 1008.2 |
| 20260507151150 | 68 | 118 | 0.0 | 0.0 | 0.10 | 0.34 | 0.32 | 98 | 1008.3 |
| 20260507150432 | 67 | 27 | 0.0 | 0.0 | 0.10 | 0.33 | 0.31 | 98 | 1008.3 |
| 20260507145931 | 67 | 28 | 0.0 | 1.0 | 0.10 | 0.32 | 0.30 | 98 | 1008.5 |
| 20260507145910 | 67 | 26 | 0.0 | 1.0 | 0.09 | 0.31 | 0.29 | 98 | 1008.5 |
| 20260507144931 | 67 | 6 | 0.0 | 0.0 | 0.08 | 0.30 | 0.28 | 98 | 1008.5 |
| 20260507144430 | 67 | 6 | 0.0 | 0.0 | 0.06 | 0.28 | 0.26 | 98 | 1008.3 |
| 20260507143929 | 67 | 6 | 0.0 | 0.0 | 0.05 | 0.27 | 0.25 | 98 | 1008.3 |
| 20260507143430 | 67 | 6 | 0.0 | 0.0 | 0.04 | 0.26 | 0.24 | 98 | 1008.3 |
| 20260507142928 | 67 | 6 | 0.0 | 0.0 | 0.03 | 0.25 | 0.23 | 98 | 1008.4 |
| 20260507142429 | 67 | 6 | 0.0 | 0.0 | 0.03 | 0.25 | 0.23 | 98 | 1008.5 |
| 20260507142416 | 67 | 42 | 0.0 | 0.0 | 0.02 | 0.24 | 0.22 | 98 | 1008.4 |
| 20260507141429 | 67 | 42 | 0.0 | 0.0 | 0.03 | 0.24 | 0.22 | 98 | 1008.5 |
| 20260507140928 | 67 | 42 | 0.0 | 0.0 | 0.03 | 0.24 | 0.22 | 98 | 1008.5 |
| 20260507140429 | 67 | 43 | 0.0 | 0.0 | 0.03 | 0.23 | 0.21 | 98 | 1008.6 |
| 20260507135929 | 67 | 44 | 0.0 | 0.0 | 0.03 | 0.22 | 0.20 | 98 | 1008.6 |
| 20260507135429 | 67 | 62 | 0.0 | 1.0 | 0.03 | 0.22 | 0.20 | 98 | 1008.8 |
| 20260507134929 | 67 | 93 | 0.0 | 1.0 | 0.04 | 0.22 | 0.20 | 98 | 1008.9 |
| 20260507134428 | 67 | 49 | 0.0 | 1.0 | 0.04 | 0.22 | 0.20 | 98 | 1008.9 |
| 20260507134148 | 67 | 48 | 0.0 | 1.0 | 0.04 | 0.22 | 0.20 | 98 | 1008.8 |
| 20260507133429 | 67 | 55 | 0.0 | 1.0 | 0.04 | 0.22 | 0.20 | 98 | 1008.7 |
| 20260507132929 | 67 | 54 | 0.0 | 1.0 | 0.05 | 0.22 | 0.20 | 98 | 1008.7 |
| 20260507132650 | 67 | 81 | 0.0 | 1.0 | 0.05 | 0.22 | 0.20 | 98 | 1008.6 |
| 20260507131928 | 67 | 77 | 0.0 | 1.0 | 0.05 | 0.22 | 0.20 | 98 | 1008.6 |
| 20260507131431 | 67 | 74 | 0.0 | 1.0 | 0.04 | 0.21 | 0.19 | 98 | 1008.6 |
| 20260507130929 | 67 | 131 | 0.0 | 0.0 | 0.04 | 0.21 | 0.19 | 98 | 1008.7 |
| 20260507130429 | 66 | 131 | 0.0 | 0.0 | 0.03 | 0.20 | 0.18 | 98 | 1008.7 |
| 20260507125929 | 66 | 199 | 0.0 | 0.0 | 0.02 | 0.19 | 0.17 | 98 | 1008.8 |
| 20260507125429 | 66 | 199 | 0.0 | 0.0 | 0.02 | 0.19 | 0.17 | 98 | 1008.8 |
| 20260507124929 | 66 | 199 | 0.0 | 0.0 | 0.01 | 0.18 | 0.16 | 98 | 1008.8 |
| 20260507124430 | 66 | 199 | 0.0 | 0.0 | 0.01 | 0.18 | 0.16 | 98 | 1008.9 |
| 20260507124149 | 66 | 199 | 0.0 | 0.0 | 0.01 | 0.18 | 0.16 | 98 | 1008.9 |
| 20260507123428 | 66 | 199 | 0.0 | 0.0 | 0.01 | 0.18 | 0.16 | 98 | 1008.9 |
| 20260507122929 | 66 | 191 | 0.0 | 0.0 | 0.00 | 0.17 | 0.15 | 98 | 1008.8 |
| 20260507122429 | 66 | 191 | 0.0 | 0.0 | 0.00 | 0.17 | 0.15 | 98 | 1008.8 |
| 20260507121929 | 66 | 191 | 0.0 | 0.0 | 0.00 | 0.17 | 0.15 | 98 | 1009.0 |
| 20260507121429 | 66 | 191 | 0.0 | 0.0 | 0.00 | 0.17 | 0.15 | 98 | 1008.9 |
| 20260507120929 | 66 | 191 | 0.0 | 0.0 | 0.00 | 0.17 | 0.15 | 98 | 1009.2 |
| 20260507120429 | 66 | 191 | 0.0 | 0.0 | 0.00 | 0.17 | 0.15 | 98 | 1009.1 |
| 20260507120147 | 66 | 192 | 0.0 | 0.0 | 0.00 | 0.17 | 0.15 | 98 | 1008.9 |
| 20260507115651 | 66 | 190 | 0.0 | 0.0 | 0.00 | 0.17 | 0.15 | 98 | 1009.1 |
| 20260507114928 | 66 | 190 | 0.0 | 0.0 | 0.00 | 0.17 | 0.15 | 98 | 1009.4 |
| 20260507114429 | 66 | 190 | 0.0 | 0.0 | 0.00 | 0.17 | 0.15 | 98 | 1009.4 |
| 20260507113928 | 66 | 190 | 0.0 | 0.0 | 0.00 | 0.17 | 0.15 | 98 | 1009.4 |
| 20260507113647 | 66 | 190 | 0.0 | 0.0 | 0.00 | 0.17 | 0.15 | 98 | 1009.3 |
| 20260507112928 | 66 | 190 | 0.0 | 0.0 | 0.00 | 0.17 | 0.15 | 98 | 1009.3 |
| 20260507112432 | 66 | 190 | 0.0 | 1.0 | 0.00 | 0.17 | 0.15 | 98 | 1009.2 |
| 20260507111931 | 66 | 190 | 0.0 | 1.0 | 0.00 | 0.17 | 0.15 | 98 | 1009.3 |
| 20260507111431 | 66 | 190 | 0.0 | 0.0 | 0.00 | 0.17 | 0.15 | 98 | 1009.2 |
| 20260507110932 | 66 | 190 | 0.0 | 0.0 | 0.00 | 0.17 | 0.15 | 98 | 1009.2 |
| 20260507110431 | 66 | 190 | 0.0 | 0.0 | 0.00 | 0.17 | 0.15 | 98 | 1008.9 |
| 20260507105931 | 66 | 189 | 0.0 | 0.0 | 0.00 | 0.17 | 0.15 | 98 | 1009.0 |
| 20260507105431 | 65 | 190 | 0.0 | 0.0 | 0.00 | 0.17 | 0.15 | 98 | 1008.9 |
| 20260507104932 | 65 | 196 | 0.0 | 0.0 | 0.00 | 0.17 | 0.15 | 97 | 1008.8 |
| 20260507104431 | 66 | 196 | 0.0 | 0.0 | 0.00 | 0.17 | 0.15 | 97 | 1008.9 |
| 20260507103931 | 66 | 196 | 0.0 | 0.0 | 0.00 | 0.17 | 0.15 | 97 | 1009.0 |
| 20260507103431 | 65 | 196 | 0.0 | 0.0 | 0.00 | 0.17 | 0.15 | 97 | 1008.9 |
| 20260507102931 | 65 | 196 | 0.0 | 0.0 | 0.00 | 0.17 | 0.15 | 97 | 1008.8 |
| 20260507102430 | 65 | 196 | 0.0 | 0.0 | 0.00 | 0.17 | 0.15 | 97 | 1008.7 |
| 20260507101932 | 65 | 204 | 0.0 | 0.0 | 0.00 | 0.17 | 0.15 | 97 | 1008.7 |
| 20260507101431 | 65 | 204 | 0.0 | 0.0 | 0.00 | 0.17 | 0.15 | 97 | 1008.8 |
| 20260507100931 | 65 | 203 | 0.0 | 0.0 | 0.00 | 0.17 | 0.15 | 97 | 1008.8 |
| 20260507100430 | 65 | 199 | 0.0 | 0.0 | 0.00 | 0.17 | 0.15 | 97 | 1008.8 |
| 20260507095931 | 65 | 216 | 0.0 | 0.0 | 0.00 | 0.17 | 0.15 | 97 | 1008.9 |
| 20260507095913 | 65 | 122 | 0.0 | 0.0 | 0.00 | 0.17 | 0.15 | 97 | 1008.8 |
| 20260507094922 | 65 | 122 | 0.0 | 0.0 | 0.00 | 0.17 | 0.15 | 97 | 1008.9 |
| 20260507094416 | 65 | 122 | 0.0 | 1.0 | 0.01 | 0.17 | 0.15 | 97 | 1009.0 |
| 20260507093914 | 65 | 134 | 0.0 | 1.0 | 0.01 | 0.17 | 0.15 | 97 | 1008.9 |
| 20260507093405 | 65 | 152 | 0.0 | 0.0 | 0.01 | 0.17 | 0.15 | 97 | 1008.9 |
| 20260507092905 | 65 | 152 | 0.0 | 0.0 | 0.01 | 0.17 | 0.15 | 97 | 1008.8 |
| 20260507092403 | 65 | 153 | 0.0 | 0.0 | 0.01 | 0.17 | 0.15 | 97 | 1008.9 |
| 20260507091903 | 65 | 152 | 0.0 | 0.0 | 0.01 | 0.17 | 0.15 | 97 | 1008.9 |
| 20260507091627 | 65 | 152 | 0.0 | 0.0 | 0.01 | 0.17 | 0.15 | 97 | 1008.9 |
| 20260507090901 | 65 | 151 | 0.0 | 0.0 | 0.01 | 0.17 | 0.15 | 97 | 1009.0 |
| 20260507090623 | 65 | 151 | 0.0 | 0.0 | 0.01 | 0.17 | 0.15 | 97 | 1009.1 |
| 20260507090118 | 65 | 152 | 0.0 | 0.0 | 0.01 | 0.17 | 0.15 | 97 | 1009.0 |
| 20260507085401 | 65 | 152 | 0.0 | 0.0 | 0.01 | 0.17 | 0.15 | 97 | 1009.2 |
| 20260507084901 | 65 | 152 | 0.0 | 1.0 | 0.01 | 0.17 | 0.15 | 97 | 1009.0 |
| 20260507084632 | 65 | 152 | 0.0 | 1.0 | 0.00 | 0.16 | 0.14 | 97 | 1009.0 |
| 20260507083901 | 65 | 142 | 0.0 | 0.0 | 0.00 | 0.16 | 0.14 | 97 | 1009.2 |
| 20260507083624 | 65 | 69 | 0.0 | 0.0 | 0.00 | 0.16 | 0.14 | 97 | 1009.6 |
| 20260507082903 | 65 | 69 | 0.0 | 0.0 | 0.00 | 0.16 | 0.14 | 97 | 1009.6 |
| 20260507082624 | 65 | 69 | 0.0 | 0.0 | 0.00 | 0.16 | 0.14 | 97 | 1009.6 |
| 20260507082127 | 65 | 69 | 0.0 | 0.0 | 0.00 | 0.16 | 0.14 | 97 | 1009.6 |
| 20260507081403 | 65 | 69 | 0.0 | 0.0 | 0.00 | 0.16 | 0.14 | 97 | 1009.3 |
| 20260507080903 | 65 | 69 | 0.0 | 0.0 | 0.00 | 0.16 | 0.14 | 97 | 1009.3 |
| 20260507080358 | 65 | 69 | 0.0 | 0.0 | 0.00 | 0.16 | 0.14 | 97 | 1009.2 |
| 20260507075850 | 65 | 69 | 0.0 | 0.0 | 0.00 | 0.16 | 0.14 | 97 | 1009.5 |
| 20260507075347 | 65 | 69 | 0.0 | 0.0 | 0.00 | 0.16 | 0.14 | 97 | 1009.7 |
| 20260507074839 | 65 | 69 | 0.0 | 0.0 | 0.00 | 0.16 | 0.14 | 97 | 1009.9 |
| 20260507074339 | 65 | 69 | 0.0 | 0.0 | 0.00 | 0.16 | 0.14 | 97 | 1009.9 |
| 20260507074055 | 65 | 69 | 0.0 | 0.0 | 0.00 | 0.16 | 0.14 | 97 | 1009.9 |
| 20260507073339 | 65 | 69 | 0.0 | 0.0 | 0.00 | 0.16 | 0.14 | 97 | 1009.9 |
| 20260507072839 | 65 | 69 | 0.0 | 0.0 | 0.00 | 0.16 | 0.14 | 97 | 1010.0 |
| 20260507072609 | 65 | 69 | 0.0 | 0.0 | 0.00 | 0.16 | 0.14 | 97 | 1010.2 |
| 20260507071840 | 65 | 69 | 0.0 | 0.0 | 0.00 | 0.16 | 0.14 | 97 | 1009.8 |
| 20260507071337 | 65 | 69 | 0.0 | 0.0 | 0.00 | 0.16 | 0.14 | 97 | 1009.8 |
| 20260507070837 | 65 | 69 | 0.0 | 0.0 | 0.00 | 0.16 | 0.14 | 97 | 1009.7 |
| 20260507070337 | 65 | 69 | 0.0 | 0.0 | 0.00 | 0.16 | 0.14 | 97 | 1009.6 |
| 20260507065835 | 65 | 69 | 0.0 | 0.0 | 0.00 | 0.16 | 0.14 | 97 | 1009.8 |
| 20260507065333 | 65 | 69 | 0.0 | 0.0 | 0.00 | 0.16 | 0.14 | 96 | 1010.3 |
| 20260507064831 | 65 | 69 | 0.0 | 0.0 | 0.00 | 0.16 | 0.14 | 96 | 1010.5 |
| 20260507064331 | 65 | 69 | 0.0 | 0.0 | 0.00 | 0.16 | 0.14 | 97 | 1010.7 |
| 20260507063831 | 65 | 252 | 0.0 | 0.0 | 0.00 | 0.16 | 0.14 | 96 | 1010.8 |
| 20260507063329 | 65 | 252 | 0.0 | 0.0 | 0.01 | 0.16 | 0.14 | 96 | 1010.7 |
| 20260507062829 | 65 | 246 | 0.0 | 0.0 | 0.03 | 0.16 | 0.14 | 96 | 1010.5 |
| 20260507062329 | 65 | 240 | 0.0 | 0.0 | 0.05 | 0.16 | 0.14 | 96 | 1010.4 |
| 20260507061828 | 65 | 239 | 0.0 | 0.0 | 0.06 | 0.16 | 0.14 | 96 | 1010.6 |
| 20260507061329 | 65 | 256 | 0.0 | 0.0 | 0.06 | 0.16 | 0.14 | 96 | 1010.9 |
| 20260507060829 | 65 | 256 | 0.0 | 0.0 | 0.06 | 0.16 | 0.14 | 96 | 1010.9 |
| 20260507060329 | 65 | 257 | 0.0 | 0.0 | 0.06 | 0.16 | 0.14 | 96 | 1010.7 |
| 20260507055829 | 65 | 257 | 0.0 | 0.0 | 0.08 | 0.16 | 0.14 | 96 | 1010.7 |
| 20260507055554 | 65 | 256 | 0.0 | 0.0 | 0.10 | 0.16 | 0.14 | 96 | 1010.5 |
| 20260507054831 | 66 | 256 | 0.0 | 0.0 | 0.11 | 0.16 | 0.14 | 96 | 1010.6 |
| 20260507054552 | 66 | 257 | 0.0 | 0.0 | 0.13 | 0.16 | 0.14 | 96 | 1010.9 |
| 20260507053831 | 66 | 256 | 0.0 | 0.0 | 0.13 | 0.16 | 0.14 | 96 | 1010.6 |
| 20260507053330 | 66 | 257 | 0.0 | 0.0 | 0.12 | 0.15 | 0.13 | 96 | 1010.3 |
| 20260507052832 | 66 | 263 | 0.0 | 1.0 | 0.10 | 0.13 | 0.11 | 95 | 1010.6 |
| 20260507052552 | 66 | 351 | 0.0 | 1.0 | 0.08 | 0.11 | 0.10 | 95 | 1011.0 |
| 20260507051829 | 66 | 58 | 0.0 | 0.0 | 0.07 | 0.10 | 0.08 | 95 | 1011.2 |
| 20260507051815 | 67 | 69 | 0.0 | 1.0 | 0.07 | 0.10 | 0.08 | 95 | 1010.9 |
| 20260507050830 | 67 | 70 | 0.0 | 1.0 | 0.08 | 0.10 | 0.08 | 94 | 1010.5 |
| 20260507050329 | 67 | 190 | 0.0 | 1.0 | 0.08 | 0.10 | 0.08 | 94 | 1009.9 |
| 20260507045829 | 67 | 251 | 0.0 | 1.0 | 0.06 | 0.08 | 0.06 | 94 | 1010.4 |
| 20260507045329 | 67 | 297 | 0.0 | 1.0 | 0.04 | 0.06 | 0.05 | 94 | 1011.4 |
| 20260507044829 | 67 | 46 | 0.0 | 2.0 | 0.03 | 0.05 | 0.03 | 93 | 1011.8 |
| 20260507044329 | 68 | 24 | 0.0 | 2.0 | 0.01 | 0.03 | 0.02 | 93 | 1011.8 |
| 20260507043829 | 68 | 40 | 0.0 | 2.0 | 0.01 | 0.03 | 0.01 | 93 | 1012.0 |
| 20260507043330 | 67 | 43 | 0.0 | 2.0 | 0.01 | 0.03 | 0.01 | 94 | 1012.2 |
| 20260507042828 | 67 | 41 | 0.0 | 1.0 | 0.02 | 0.03 | 0.01 | 94 | 1012.3 |
| 20260507042329 | 67 | 34 | 0.0 | 1.0 | 0.02 | 0.03 | 0.01 | 95 | 1012.3 |
| 20260507041827 | 67 | 10 | 0.0 | 0.0 | 0.02 | 0.03 | 0.01 | 95 | 1012.0 |
| 20260507041326 | 67 | 262 | 0.0 | 0.0 | 0.02 | 0.03 | 0.01 | 95 | 1011.9 |
| 20260507040823 | 67 | 261 | 0.0 | 0.0 | 0.01 | 0.02 | 0.00 | 94 | 1011.7 |
| 20260507040321 | 67 | 261 | 0.0 | 0.0 | 0.01 | 0.02 | 0.00 | 94 | 1011.5 |
| 20260507035821 | 67 | 261 | 0.0 | 0.0 | 0.01 | 0.02 | 0.02 | 94 | 1011.3 |
| 20260507035319 | 67 | 261 | 0.0 | 0.0 | 0.01 | 0.02 | 0.02 | 94 | 1011.2 |
| 20260507034819 | 67 | 261 | 0.0 | 0.0 | 0.01 | 0.02 | 0.02 | 93 | 1010.9 |
| 20260507034317 | 67 | 324 | 0.0 | 0.0 | 0.01 | 0.02 | 0.02 | 93 | 1011.1 |
| 20260507033818 | 67 | 324 | 0.0 | 0.0 | 0.01 | 0.02 | 0.02 | 93 | 1011.1 |
| 20260507033319 | 67 | 324 | 0.0 | 0.0 | 0.00 | 0.01 | 0.01 | 93 | 1011.2 |
| 20260507032816 | 67 | 324 | 0.0 | 0.0 | 0.00 | 0.01 | 0.01 | 93 | 1011.3 |
| 20260507032310 | 67 | 324 | 0.0 | 0.0 | 0.00 | 0.01 | 0.01 | 93 | 1011.3 |
| 20260507031808 | 67 | 324 | 0.0 | 0.0 | 0.00 | 0.01 | 0.01 | 93 | 1011.2 |
| 20260507031308 | 67 | 324 | 0.0 | 0.0 | 0.00 | 0.01 | 0.01 | 93 | 1011.1 |
| 20260507030808 | 67 | 324 | 0.0 | 0.0 | 0.00 | 0.01 | 0.01 | 93 | 1011.1 |
| 20260507030305 | 67 | 324 | 0.0 | 0.0 | 0.00 | 0.01 | 0.01 | 94 | 1011.0 |
| 20260507025801 | 67 | 324 | 0.0 | 0.0 | 0.00 | 0.01 | 0.01 | 94 | 1011.0 |
| 20260507025301 | 67 | 324 | 0.0 | 0.0 | 0.00 | 0.01 | 0.01 | 94 | 1010.9 |
| 20260507024801 | 67 | 324 | 0.0 | 0.0 | 0.00 | 0.01 | 0.01 | 94 | 1010.9 |
| 20260507024302 | 67 | 324 | 0.0 | 0.0 | 0.00 | 0.01 | 0.01 | 94 | 1010.8 |
| 20260507024021 | 67 | 324 | 0.0 | 0.0 | 0.00 | 0.01 | 0.01 | 94 | 1010.8 |
| 20260507023301 | 67 | 324 | 0.0 | 0.0 | 0.00 | 0.01 | 0.01 | 94 | 1010.8 |
| 20260507022801 | 67 | 324 | 0.0 | 0.0 | 0.00 | 0.01 | 0.01 | 94 | 1010.6 |
| 20260507022301 | 67 | 324 | 0.0 | 0.0 | 0.00 | 0.01 | 0.01 | 93 | 1010.5 |
| 20260507021801 | 67 | 324 | 0.0 | 0.0 | 0.00 | 0.01 | 0.01 | 93 | 1010.6 |
| 20260507021304 | 67 | 324 | 0.0 | 0.0 | 0.00 | 0.01 | 0.01 | 93 | 1010.6 |
| 20260507020803 | 67 | 324 | 0.0 | 0.0 | 0.00 | 0.01 | 0.01 | 93 | 1010.6 |
| 20260507020523 | 67 | 324 | 0.0 | 0.0 | 0.00 | 0.01 | 0.01 | 93 | 1010.7 |
| 20260507015803 | 67 | 324 | 0.0 | 0.0 | 0.00 | 0.01 | 0.01 | 93 | 1010.8 |
| 20260507015526 | 67 | 324 | 0.0 | 0.0 | 0.00 | 0.01 | 0.01 | 93 | 1010.7 |
| 20260507014758 | 68 | 324 | 0.0 | 0.0 | 0.00 | 0.01 | 0.01 | 93 | 1010.6 |
| 20260507014252 | 68 | 324 | 0.0 | 0.0 | 0.00 | 0.01 | 0.01 | 93 | 1010.6 |
| 20260507013754 | 68 | 324 | 0.0 | 0.0 | 0.00 | 0.01 | 0.01 | 92 | 1010.7 |
| 20260507013251 | 68 | 324 | 0.0 | 0.0 | 0.00 | 0.01 | 0.01 | 92 | 1010.9 |
| 20260507012751 | 68 | 324 | 0.0 | 0.0 | 0.00 | 0.01 | 0.01 | 92 | 1010.9 |
| 20260507012252 | 68 | 324 | 0.0 | 0.0 | 0.00 | 0.01 | 0.01 | 92 | 1010.8 |
| 20260507011750 | 68 | 324 | 0.0 | 0.0 | 0.00 | 0.01 | 0.01 | 92 | 1010.7 |
| 20260507011247 | 68 | 324 | 0.0 | 0.0 | 0.01 | 0.01 | 0.01 | 91 | 1010.6 |
| 20260507010746 | 68 | 0 | 0.0 | 0.0 | 0.01 | 0.01 | 0.01 | 91 | 1010.7 |
| 20260507010504 | 68 | 0 | 0.0 | 0.0 | 0.01 | 0.01 | 0.01 | 91 | 1010.8 |
| 20260507005745 | 68 | 0 | 0.0 | 0.0 | 0.01 | 0.01 | 0.01 | 91 | 1010.7 |
| 20260507005511 | 68 | 0 | 0.0 | 0.0 | 0.01 | 0.01 | 0.01 | 91 | 1010.7 |
| 20260507004743 | 68 | 0 | 0.0 | 0.0 | 0.01 | 0.01 | 0.01 | 90 | 1010.7 |
| 20260507004243 | 68 | 0 | 0.0 | 0.0 | 0.01 | 0.01 | 0.01 | 90 | 1010.8 |
| 20260507003741 | 69 | 0 | 0.0 | 0.0 | 0.01 | 0.01 | 0.01 | 90 | 1010.8 |
| 20260507003241 | 69 | 0 | 0.0 | 0.0 | 0.01 | 0.01 | 0.01 | 90 | 1010.6 |
| 20260507003000 | 69 | 0 | 0.0 | 0.0 | 0.01 | 0.01 | 0.01 | 89 | 1010.8 |
| 20260507002239 | 69 | 0 | 0.0 | 0.0 | 0.01 | 0.01 | 0.01 | 89 | 1010.8 |
| 20260507001737 | 69 | 0 | 0.0 | 0.0 | 0.01 | 0.01 | 0.01 | 89 | 1010.7 |
| 20260507001235 | 69 | 0 | 0.0 | 0.0 | 0.00 | 0.00 | 0.00 | 88 | 1010.6 |
| 20260507000733 | 69 | 0 | 0.0 | 0.0 | 0.00 | 0.00 | 0.00 | 88 | 1010.6 |
| 20260507000229 | 70 | 0 | 0.0 | 0.0 | 0.00 | 0.00 | 0.00 | 87 | 1010.7 |